Regional Weather Roundup
Issued by NWS

Home | Current Version | Previous Version | Graphics & Text | Print | Product List | Glossary On
Versions: 1 2 3 4 5 6 7 8 9 10 11 12 13 14 15 16 17 18 19 20 21 22 23 24 25 26 27 28 29 30 31 32 33 34 35 36 37 38 39 40 41 42 43 44 45 46 47 48 49 50
000
ASUS44 KFWD 301215
RWRTX
NORTH TEXAS HOURLY WEATHER ROUNDUP
NATIONAL WEATHER SERVICE FORT WORTH TX
700 AM CDT SUN AUG 30 2015

NOTE: "FAIR" INDICATES FEW OR NO CLOUDS BELOW 12,000 FEET WITH NO
SIGNIFICANT WEATHER AND/OR OBSTRUCTIONS TO VISIBILITY.

TXZ118-119-301300-
DALLAS/FORT WORTH METROPLEX

CITY           SKY/WX    TMP DP  RH WIND       PRES   REMARKS
DFW AIRPORT    CLOUDY    76  66  71 S7        29.97S
6HR MIN TEMP:  75; 6HR MAX TEMP:  81;

DALLAS LOVE    MOCLDY    78  65  63 S7        29.98R
6HR MIN TEMP:  78; 6HR MAX TEMP:  82;

FTW MEACHAM    CLOUDY    78  65  63 S3        29.98R
6HR MIN TEMP:  75; 6HR MAX TEMP:  80;

DAL-EXECUTIVE  MOCLDY    77  64  64 S3        29.98R
6HR MIN TEMP:  75; 6HR MAX TEMP:  80;

FTW-ALLIANCE   CLOUDY    71  65  81 SW5       29.97S
6HR MIN TEMP:  70; 6HR MAX TEMP:  76;

FTW-NAS-JRB    CLOUDY    78  65  63 S3        29.99R
6HR MIN TEMP:  76; 6HR MAX TEMP:  80;

FTW-SPINKS     MOCLDY    72  70  94 CALM      30.00R
ARLINGTON      CLOUDY    75  65  70 CALM      29.98S
6HR MIN TEMP:  73; 6HR MAX TEMP:  79;

GRAND PRAIRIE  CLEAR     75  66  73 S3        29.99F
ADDISON        CLOUDY    79  63  57 S7        30.00R
MESQUITE       CLEAR     81  66  61 S3        29.99S
LANCASTER      MOCLDY    74  63  67 CALM      30.00S
6HR MIN TEMP:  73; 6HR MAX TEMP:  78;

$$

TXZ091>094-102>105-117-120-121-131>134-301300-
NORTH CENTRAL TEXAS

CITY           SKY/WX    TMP DP  RH WIND       PRES   REMARKS
SHRMAN/DENISON PTCLDY    73  65  76 SW5       29.97S
6HR MIN TEMP:  73; 6HR MAX TEMP:  81;

GAINESVILLE    PTCLDY    69  59  69 CALM      30.00R
6HR MIN TEMP:  69; 6HR MAX TEMP:  80;

BOWIE          PTCLDY    68  59  71 CALM      29.99R
6HR MIN TEMP:  68; 6HR MAX TEMP:  74;

BRIDGEPORT     CLOUDY    70  64  80 SW3       30.00S
6HR MIN TEMP:  67; 6HR MAX TEMP:  74;

DECATUR        MOCLDY    75  58  56 SW7       29.99S
6HR MIN TEMP:  73; 6HR MAX TEMP:  75;

DENTON         MOCLDY    72  63  73 S6        29.97S
6HR MIN TEMP:  71; 6HR MAX TEMP:  77;

MCKINNEY       PTCLDY    73  65  75 S9        29.97S
6HR MIN TEMP:  72; 6HR MAX TEMP:  77; 6HR PCP: TRACE;

GREENVILLE     MOCLDY    73  64  73 S6        29.98S
ROCKWALL       MOCLDY    74  66  75 S12       29.97S
6HR MIN TEMP:  74; 6HR MAX TEMP:  80;

TERRELL        MOCLDY    75  67  76 S6        29.99S
6HR MIN TEMP:  73; 6HR MAX TEMP:  80;

WAXAHACHIE     CLOUDY    74  65  74 CALM      30.00S
6HR MIN TEMP:  73; 6HR MAX TEMP:  76;

CLEBURNE         N/A     75  70  83 S6        30.01R
GRANBURY       CLOUDY    77  65  67 CALM      30.00R
6HR MIN TEMP:  75; 6HR MAX TEMP:  79;

$$

TXZ083>090-098>101-113>116-127>130-139>142-154-155-301300-
WESTERN NORTH TEXAS

CITY           SKY/WX    TMP DP  RH WIND       PRES   REMARKS
WICHITA FALLS  PTCLDY    66  57  72 SW8       29.98R
6HR MIN TEMP:  64; 6HR MAX TEMP:  79;

WF-KICKAPOO    PTCLDY    72  57  60 CALM      29.99R
6HR MIN TEMP:  71; 6HR MAX TEMP:  83;

VERNON         CLEAR     69  59  69 N3        30.00R
6HR MIN TEMP:  69; 6HR MAX TEMP: 101;

ABILENE        CLOUDY    69  61  75 S3        30.05S
6HR MIN TEMP:  68; 6HR MAX TEMP:  73;

ABILENE-DYESS  CLOUDY    67  63  87 S3        30.04R
6HR MIN TEMP:  67; 6HR MAX TEMP:  71;

BRECKENRIDGE   CLOUDY    72  58  62 CALM      30.02S
6HR MIN TEMP:  71; 6HR MAX TEMP:  76;

GRAHAM         MOCLDY    68  61  79 CALM      29.99S
6HR MIN TEMP:  67; 6HR MAX TEMP:  72;

MINERAL WELLS  CLOUDY    71  68  90 CALM      29.99R
6HR MIN TEMP:  71; 6HR MAX TEMP:  75;

STEPHENVILLE   CLOUDY    77  63  61 SW6       30.02S
6HR MIN TEMP:  73; 6HR MAX TEMP:  78; 6HR PCP:  0.02;

COMANCHE       DRIZZLE   72  67  84 S8        30.04R
6HR MIN TEMP:  71; 6HR MAX TEMP:  76; 6HR PCP:  0.01;

BROWNWOOD      CLOUDY    73  64  73 S3        30.05R
COLEMAN        LGT RAIN  71  65  80 S6        30.06R
6HR MIN TEMP:  71; 6HR MAX TEMP:  78;

BRADY          CLOUDY    73  63  68 SE3       30.06R
$$

TXZ143>147-156>162-174-175-301300-
CENTRAL TEXAS

CITY           SKY/WX    TMP DP  RH WIND       PRES   REMARKS
WACO           LGT RAIN  77  67  71 S12       30.01R
6HR MIN TEMP:  77; 6HR MAX TEMP:  84; 6HR PCP: TRACE;

WACO-TSTC      CLOUDY    75  66  73 S6        30.00
WACO-MCGREGOR  RAIN      73  70  90 SW8       30.03R
6HR MIN TEMP:  73; 6HR MAX TEMP:  82; 6HR PCP:  0.13;

HILLSBORO      CLOUDY    76  62  62 S6        30.00R
6HR MIN TEMP:  76; 6HR MAX TEMP:  79;

CORSICANA      CLOUDY    76  65  68 S6        30.01R
6HR MIN TEMP:  76; 6HR MAX TEMP:  82;

MEXIA          CLOUDY    74  66  74 SE10      30.00R
6HR MIN TEMP:  74; 6HR MAX TEMP:  78;

HEARNE         CLOUDY    73  67  84 CALM      30.03R
6HR MIN TEMP:  73; 6HR MAX TEMP:  77;

CAMERON        CLOUDY    74  66  75 CALM      30.02R
6HR MIN TEMP:  74; 6HR MAX TEMP:  80;

TEMPLE         CLOUDY    73  64  73 S6        30.02R
6HR MIN TEMP:  73; 6HR MAX TEMP:  79;

KILLEEN        LGT RAIN  75  66  73 S7        30.02R
6HR MIN TEMP:  75; 6HR MAX TEMP:  80; 6HR PCP: TRACE;

KILLEEN-SKYLRK CLOUDY    75  64  69 S6        30.01R
6HR MIN TEMP:  75; 6HR MAX TEMP:  81;

FORT HOOD      CLOUDY    75  67  76 S7        30.02R
6HR MIN TEMP:  74; 6HR MAX TEMP:  80; 6HR PCP:  0.01;

GATESVILLE     CLOUDY    73  70  88 CALM      30.04S
HAMILTON       CLOUDY    74  65  73 SW6       30.04R
6HR MIN TEMP:  74; 6HR MAX TEMP:  79;

LAMPASAS       CLOUDY    76  72  88 CALM      30.04R
6HR MIN TEMP:  73; 6HR MAX TEMP:  78;

$$

TXZ095>097-106>112-122>126-135>138-148>153-164>167-301300-
EAST TEXAS

CITY           SKY/WX    TMP DP  RH WIND       PRES   REMARKS
PARIS          CLEAR     72  61  68 S5        29.97S
6HR MIN TEMP:  72; 6HR MAX TEMP:  79;

SULPHUR SPRNGS MOCLDY    75  66  74 SW12      30.00R
6HR MIN TEMP:  75; 6HR MAX TEMP:  81;

MOUNT PLEASANT CLEAR     73  64  73 S5        30.00S
6HR MIN TEMP:  72; 6HR MAX TEMP:  76;

GILMER         PTCLDY    72  64  77 S3        30.00S
6HR MIN TEMP:  72; 6HR MAX TEMP:  78;

MINEOLA        MOCLDY    75  66  73 SW7       30.00R
TYLER          PTCLDY    76  65  68 SW7       30.00R
6HR MIN TEMP:  76; 6HR MAX TEMP:  79;

LONGVIEW       PTCLDY    74  65  73 W5        30.00R
6HR MIN TEMP:  73; 6HR MAX TEMP:  77;

MARSHALL       PTCLDY    71  68  90 CALM      30.02S
6HR MIN TEMP:  71; 6HR MAX TEMP:  76;

ATHENS         MOCLDY    72  64  78 CALM      30.00R
JACKSONVILLE   CLOUDY    74  64  73 SW5       30.04R
HENDERSON      MOCLDY    70  66  88 CALM      30.03R
6HR MIN TEMP:  69; 6HR MAX TEMP:  73;

CENTER         FAIR      71  67  85 CALM      30.01S
6HR MIN TEMP:  71; 6HR MAX TEMP:  79;

NACOGDOCHES    CLOUDY    70  66  88 CALM      30.02R
6HR MIN TEMP:  66; 6HR MAX TEMP:  73;

LUFKIN         CLOUDY    69  66  90 CALM      30.01S
6HR MIN TEMP:  69; 6HR MAX TEMP:  73;

$$

SUPPLEMENTAL OBSERVATIONS (CENTRAL)

CITY           SKY/WX    TMP DP  RH WIND       PRES   REMARKS
LAKE LIMESTONE   N/A     73  64  73 S3          N/A
MCGREGOR         N/A     73  70  88 SW1         N/A
TEMPLE           N/A     75  64  69 SW1         N/A
$$

SUPPLEMENTAL OBSERVATIONS (WEST)

CITY           SKY/WX    TMP DP  RH WIND       PRES   REMARKS
POSSUM KINGDOM   N/A     72  57  60 SW3         N/A


USA.gov is the U.S. government's official web portal to all federal, state and local government web resources and services.